This is the latest recevied weather packets stored in our database for station/object W8AN. If no packets are shown the sender has not sent any weather packets the latest 10 day(s).
| Time | Temp. | Humidity | Pressure | Rain* | Wind** | Luminosity | Snow |
|---|---|---|---|---|---|---|---|
| 1778168296 | 11.67° C | 58% | 4268.4 hPa | 0 mm | - | 834 W/m² | - |
| 1778167993 | 11.11° C | 56% | 4268.5 hPa | 0 mm | - | 831 W/m² | - |
| 1778167689 | 11.11° C | 54% | 4268.3 hPa | 0 mm | - | 835 W/m² | - |
| 1778167385 | 11.11° C | 56% | 4268.4 hPa | 0 mm | - | 822 W/m² | - |
| 1778167081 | 11.11° C | 58% | 4268.4 hPa | 0 mm | - | 837 W/m² | - |
| 1778166778 | 11.11° C | 61% | 4268.4 hPa | 0 mm | - | 835 W/m² | - |
| 1778166475 | 10.56° C | 64% | 4268.3 hPa | 0 mm | - | 823 W/m² | - |
| 1778166171 | 11.11° C | 62% | 4268.3 hPa | 0 mm | - | 826 W/m² | - |
| 1778165868 | 10.56° C | 61% | 4268.3 hPa | 0 mm | - | 790 W/m² | - |
| 1778165564 | 10.56° C | 63% | 4268.4 hPa | 0 mm | - | 776 W/m² | - |
| 1778165261 | 10.56° C | 63% | 4268.3 hPa | 0 mm | - | 765 W/m² | - |
| 1778164959 | 10.56° C | 61% | 4268.3 hPa | 0 mm | - | 757 W/m² | - |
| 1778164655 | 10° C | 59% | 4268.1 hPa | 0 mm | - | 742 W/m² | - |
| 1778164353 | 10° C | 63% | 4268.2 hPa | 0 mm | - | 732 W/m² | - |
| 1778164048 | 10.56° C | 64% | 4268.4 hPa | 0 mm | - | 723 W/m² | - |
| 1778163745 | 10° C | 65% | 4268.4 hPa | 0 mm | - | 711 W/m² | - |
| 1778163441 | 10° C | 64% | 4268.3 hPa | 0 mm | - | 695 W/m² | - |
| 1778163139 | 10° C | 64% | 4268.6 hPa | 0 mm | - | 672 W/m² | - |
| 1778162834 | 10° C | 66% | 4268.6 hPa | 0 mm | - | 665 W/m² | - |
| 1778162533 | 9.44° C | 67% | 4268.6 hPa | 0 mm | - | 656 W/m² | - |
| 1778162229 | 8.89° C | 66% | 4268.6 hPa | 0 mm | - | 635 W/m² | - |
| 1778161927 | 8.89° C | 66% | 4268.5 hPa | 0 mm | - | 621 W/m² | - |
| 1778161623 | 8.89° C | 66% | 4268.6 hPa | 0 mm | - | 608 W/m² | - |
| 1778161319 | 8.89° C | 66% | 4268.6 hPa | 0 mm | - | 595 W/m² | - |
| 1778161015 | 8.89° C | 67% | 4268.6 hPa | 0 mm | - | 565 W/m² | - |
* Rain latest hour (hover to see other rain measurements)
** Current wind speed in m/s (hover to see current wind gust speed)